Location: Devore Heights
(34.2372°N, 117.4156°W)
Time: 18:42:35
(UTC+00:00)

deb Explorer IX - Pass Details

Date: 21 September 2024
Orbit: 502 x 816 km, 38.7° (Epoch: 15 October)

Event Time Altitude Azimuth Distance (km) Brightness Sun altitude
Rises 00:33:57 0° 237° (WSW) 3,157 ? 14.5°
Reaches altitude 10° 00:36:19 10° 235° (SW) 2,285 ? 14.0°
Maximum altitude 00:41:43 66° 153° (SSE) 876 ? 12.9°
Drops below altitude 10° 00:47:30 10° 73° (ENE) 2,446 ? 11.7°
Sets 00:50:06 0° 71° (ENE) 3,396 ? 11.2°
